{"data":{"norad_id":54109,"epoch":"2026-05-25T04:47:31.353216Z","epoch_age_seconds":58099,"freshness":"FRESH","line1":"1 54109U 22137A   26145.19966844  .00012393  00000+0  21405-3 0  9991","line2":"2 54109  96.9206 205.0678 0011963 108.5143 251.7411 15.51038474202781","mean_motion":15.51038474,"eccentricity":0.0011963,"inclination_deg":96.9206,"raan_deg":205.0678,"arg_perigee_deg":108.5143,"mean_anomaly_deg":251.7411,"bstar":0.00021405,"rev_number":20278,"period_min":92.841023877787,"perigee_km":405.56773384541,"apogee_km":421.81786582449,"semimajor_km":6791.8297998349,"source":"CELESTRAK","updated_at":"2026-05-25T13:37:58.587242Z"}}